Starlink 4644

operational
NORAD ID: 53719 Int'l Des: 2022-107 Owner: SPXS Country: US Constellation: starlink
LEOCIRCULAR

About Starlink 4644

Description loading...

Live Position

Loading 3D Globe...

Upcoming Passes

Altitude History

Altitude vs Time

uPlot chart will show altitude changes over time

Two-Line Element Set

1 53719U 22107V 25339.12705896 -.00002420 00000-0 -13405-3 0 9993
2 53719 53.2178 288.2518 0001606 78.6694 281.4478 15.08818738180563
Epoch: Dec 5, 2025 • Age: 21 hours

Current Status

Altitude 539.6 km
Velocity 7.59 km/s
Sub-Earth Point 8.81°N, 140.51°W
Launch Date Sep 5, 2022
Age 3.2 years
Type internet

Technical Details

Classification Payload
Mass 305.00 kg
Dry Mass 290.00 kg
Total Mass 305.00 kg
Length 0.20 m
Diameter 2.80 m
Span 9.00 m
Shape Box + pan
Manufacturer SPXS
Bus Type Starlink
Phase Status In Orbit
Owner/State SPXS/US

Large Constellations

Loading constellations...